Prefixes

Prefixes

Prefix 158 Country Description Created Modified Subnets
2a0e:b107::/44 Reserved for VIP customers 2019-09-09 2019-09-09 No
2a0e:b107:10::/46 SHARED-AS service network 2019-07-19 2019-07-19 No
2a0e:b107:14::/48 test 2019-08-31 2019-08-31 No
2a0e:b107:16::/48 Touch Fish Network 2019-09-05 2019-09-05 No
2a0e:b107:17::/48 indyradio 2019-09-06 2019-09-06 No
2a0e:b107:18::/48 CAPCOMM-DE 2019-07-28 2019-07-28 No
2a0e:b107:1a::/48 first11 2019-08-17 2019-08-17 No
2a0e:b107:1b::/48 Reinach 2019-08-19 2019-08-19 No
2a0e:b107:1c::/46 Yang Fang Networks 2019-08-01 2019-08-01 Yes
2a0e:b107:20::/48 IPv6 from tunnelbroker.ch 2019-09-25 2019-09-25 No
2a0e:b107:21::/48 Infrastructure 2019-08-26 2019-08-26 No
2a0e:b107:22::/48 6tr 2019-08-29 2019-08-29 No
2a0e:b107:23::/48 RO-NETRAD-V6 2019-09-16 2019-09-16 Yes
2a0e:b107:24::/46 Liuxyon 2019-08-01 2019-08-01 Yes
2a0e:b107:28::/47 AZUSA 2019-09-17 2019-09-17 No
2a0e:b107:2a::/48 sQro 2019-10-18 2019-10-18 No
2a0e:b107:2b::/48 GRMML Networks IPv6 001 2019-10-06 2019-10-06 No
2a0e:b107:2c::/48 6THL-TNLCH 2019-10-07 2019-10-07 No
2a0e:b107:2d::/48 public 2019-10-08 2019-10-08 No
2a0e:b107:2e::/48 Geekzu Networks 2019-10-11 2019-10-11 No
2a0e:b107:2f::/48 Voyservers IPv6 2019-11-24 2019-11-24 No
2a0e:b107:30::/44 Zhiyuan Network 2019-08-09 2019-08-09 Yes
2a0e:b107:40::/44 Buehl Test Net 2020-01-21 2020-01-21 No
2a0e:b107:50::/44 Personal-use allocation 2019-08-10 2019-08-10 No
2a0e:b107:60::/44 DJ-NET 2019-08-11 2019-08-11 No
2a0e:b107:80::/44 defirst 2019-08-17 2019-08-17 No
2a0e:b107:90::/44 Ruifeng Co., Ltd. 2019-09-07 2019-09-07 No
2a0e:b107:a0::/44 Fish Network 2019-08-17 2019-08-17 Yes
2a0e:b107:b0::/44 VCX Core Net Space 2019-08-19 2019-08-19 No
2a0e:b107:c0::/44 TurtleBit multi-region 2019-08-22 2019-08-22 Yes
2a0e:b107:d0::/44 rappet-clients 2019-08-25 2019-08-25 No
2a0e:b107:e0::/44 TunnelBroker.ch 2019-08-26 2019-08-26 No
2a0e:b107:f0::/44 AS209861 Spon-NET 2019-08-30 2019-08-30 Yes
2a0e:b107:110::/44 FansNET-Leased 2019-09-01 2019-09-01 Yes
2a0e:b107:120::/44 Billy-George 2019-09-02 2019-09-02 No
2a0e:b107:140::/44 dc_main 2019-09-19 2019-09-19 Yes
2a0e:b107:150::/44 62075_1 2019-09-20 2019-09-20 No
2a0e:b107:160::/44 WNetwork 2019-09-22 2019-09-22 Yes
2a0e:b107:170::/44 GTDev European Region 2019-09-22 2019-09-22 Yes
2a0e:b107:180::/44 IPv6 2019-09-25 2019-09-25 No
2a0e:b107:190::/48 omega 2019-12-15 2019-12-15 No
2a0e:b107:191::/48 Burzum 2019-12-16 2019-12-16 No
2a0e:b107:192::/48 intibu global 2019-12-18 2019-12-18 No
2a0e:b107:193::/48 Home 2019-12-21 2019-12-21 No
2a0e:b107:194::/48 Koen 2019-12-27 2019-12-27 No
2a0e:b107:195::/48 mijneersteipversie6tunnel 2019-12-30 2019-12-30 No
2a0e:b107:196::/48 Gloor Family 2020-01-08 2020-01-08 No
2a0e:b107:197::/48 coreIT.pl IPv6 Pool 2020-01-11 2020-01-11 Yes
2a0e:b107:198::/48 AQ 2020-02-26 2020-02-26 No
2a0e:b107:199::/48 6to4 2020-03-01 2020-03-01 Yes
2a0e:b107:19a::/48 Dotted 2020-01-21 2020-01-21 No
2a0e:b107:19b::/48 Piranaa 2020-01-22 2020-01-22 No
2a0e:b107:19c::/48 LAN 2020-01-26 2020-01-26 No
2a0e:b107:19d::/48 Server obj 2020-01-26 2020-01-26 Yes
2a0e:b107:19e::/48 Address space for education 2020-01-31 2020-01-31 No
2a0e:b107:19f::/48 Cushnet 2020-02-12 2020-02-12 No
2a0e:b107:1a0::/44 IPv6 2019-09-25 2019-09-25 No
2a0e:b107:1b0::/44 HS - TBch 2019-09-25 2019-09-25 Yes
2a0e:b107:1c0::/44 Malindex Network Global IP Network 2019-10-05 2019-10-05 Yes
2a0e:b107:1d0::/44 Haima 2019-10-05 2019-10-05 Yes
2a0e:b107:1e0::/44 Baizhi's Experimental Network 2019-10-05 2019-10-05 Yes
2a0e:b107:1f0::/44 ZMOE LTD 2019-10-05 2019-10-05 No
2a0e:b107:200::/44 EU allocations 2019-10-16 2019-10-16 Yes
2a0e:b107:210::/44 ELTACOM IPV6 ONE 2019-11-04 2019-11-04 No
2a0e:b107:220::/44 AS208717 prefixes 2019-11-06 2019-11-06 Yes
2a0e:b107:230::/44 fulhencio 2019-11-07 2019-11-07 Yes
2a0e:b107:240::/44 FinalX Fallback Network 2019-11-07 2019-11-07 Yes
2a0e:b107:260::/44 ALARIG-NO 2019-11-12 2019-11-12 No
2a0e:b107:270::/48 Tunnelbroker 2019-11-13 2019-11-13 No
2a0e:b107:272::/48 NL-EMENDERS-20191123 2019-11-23 2019-11-23 Yes
2a0e:b107:273::/48 IPv6 WAN 2019-11-26 2019-11-26 No
2a0e:b107:274::/48 KNET 2019-11-29 2019-11-29 No
2a0e:b107:275::/48 Majenko Technologies 2019-11-30 2019-11-30 No
2a0e:b107:276::/48 Home 2019-12-01 2019-12-01 No
2a0e:b107:278::/46 Test Subnet 2019-12-09 2019-12-09 No
2a0e:b107:27c::/48 Frontier Network LLC 2020-02-14 2020-02-14 No
2a0e:b107:27d::/48 Privat network use 2020-02-19 2020-02-19 No
2a0e:b107:27f::/48 PSNET-LAB 2020-03-07 2020-03-07 No
2a0e:b107:280::/44 Nathan Sales 2019-11-14 2020-01-12 No
2a0e:b107:290::/44 ArachnidIX 2019-11-14 2019-11-14 No
2a0e:b107:2a0::/44 Cryous Networks 2019-11-15 2019-11-15 No
2a0e:b107:2b0::/44 dam64 2019-11-24 2019-11-24 Yes
2a0e:b107:2c0::/44 IMLONGHAO 2019-11-26 2019-11-26 Yes
2a0e:b107:2d0::/44 Atlantia Clou 2019-11-26 2019-11-26 Yes
2a0e:b107:2e0::/44 MSbone Cloud 2019-11-28 2019-11-28 No
2a0e:b107:2f0::/44 NET-PETERCXY-SORA 2019-11-29 2019-11-29 Yes
2a0e:b107:300::/44 Hoshi Network 2019-12-01 2019-12-01 Yes
2a0e:b107:310::/44 VNP DIGITAL v6 2019-12-07 2019-12-07 Yes
2a0e:b107:320::/44 mfyll 2019-12-10 2019-12-10 No
2a0e:b107:330::/44 IPv6 Network 2019-12-14 2019-12-14 Yes
2a0e:b107:340::/44 subnet 2019-12-15 2019-12-15 No
2a0e:b107:350::/44 Complex Network 2019-12-15 2019-12-15 No
2a0e:b107:370::/44 NL-MG-20191219 2019-12-19 2019-12-19 No
2a0e:b107:380::/44 NETSIX - IT Consulting - Networks - Comunications 2019-12-19 2019-12-19 Yes
2a0e:b107:390::/44 tunell jp3 2019-12-20 2019-12-20 No
2a0e:b107:3a0::/44 Amdexa Research Network 2019-12-20 2019-12-20 No
2a0e:b107:3b0::/44 Lekua 2019-12-21 2019-12-21 No
2a0e:b107:3c0::/44 netwerxripe44 2019-12-24 2019-12-24 Yes
2a0e:b107:3d0::/44 2019-12-27 2019-12-27 Yes
2a0e:b107:3f0::/44 Vultr_pxe 2020-01-07 2020-01-07 Yes
2a0e:b107:410::/44 Claes Persson 2020-01-13 2020-01-13 Yes
2a0e:b107:420::/44 Liljegren Development AB 2020-01-13 2020-01-13 No
2a0e:b107:430::/44 WhiteHat Swiss 2020-01-15 2020-01-15 No
2a0e:b107:440::/44 VAMH 2020-01-24 2020-01-24 Yes
2a0e:b107:450::/44 ISP-Network 2020-01-27 2020-01-27 Yes
2a0e:b107:460::/44 Network 2020-01-27 2020-01-27 Yes
2a0e:b107:470::/44 YottaDevelop 2020-01-30 2020-01-30 No
2a0e:b107:480::/44 walther 2020-01-31 2020-01-31 No
2a0e:b107:490::/44 Rickey S Francis Jr 2020-02-02 2020-02-02 No
2a0e:b107:4a0::/44 GoHosted.eu 2020-02-03 2020-02-03 Yes
2a0e:b107:4b0::/44 Geekzu Networks 2020-02-09 2020-02-09 No
2a0e:b107:4c0::/44 HATO Network Lab 2020-02-12 2020-02-12 No
2a0e:b107:4d0::/44 tunnelbroker.ch 2020-02-13 2020-02-13 No
2a0e:b107:4e0::/44 SHMY 2020-02-13 2020-02-13 Yes
2a0e:b107:4f0::/44 Hengtai Technology BroadBand 2020-02-13 2020-02-13 Yes
2a0e:b107:500::/44 Exploooosion Network 2020-02-14 2020-02-14 No
2a0e:b107:510::/44 Huanzhong Global Data Network 2020-02-15 2020-02-15 Yes
2a0e:b107:520::/44 DCC TECH LTD 2020-02-15 2020-02-15 No
2a0e:b107:530::/44 Luiz Amaral 2020-02-21 2020-02-21 Yes
2a0e:b107:540::/44 HR-IPV6 2020-02-24 2020-02-24 Yes
2a0e:b107:550::/44 Tailors Cloud 2020-02-26 2020-02-26 Yes
2a0e:b107:560::/44 Prefix_Server 2020-02-27 2020-02-27 Yes
2a0e:b107:570::/44 IP Allocation 2 2020-02-28 2020-02-28 Yes
2a0e:b107:580::/44 MoeQing HongKong Region Network 2020-03-04 2020-03-04 No
2a0e:b107:590::/44 ORG-HA844-RIPE 2020-03-06 2020-03-06 No
2a0e:b107:5a0::/44 tokyo-lxcpool-3- 2020-03-07 2020-03-07 No
2a0e:b107:5b0::/44 VPS-ALIENS-LLC-NET6-3 2020-03-07 2020-03-07 No
2a0e:b107:5c0::/48 Sweplox 2020-03-08 2020-03-08 No
2a0e:b107:5c1::/48 ZERO.ID 2020-03-08 2020-03-08 No
2a0e:b107:5c2::/48 PSNET-LAB 2020-03-13 2020-03-13 No
2a0e:b107:5c3::/48 MQNET United States Backbone Network 2020-03-23 2020-03-23 No
2a0e:b107:5c4::/48 Network Service 2020-03-25 2020-03-25 No
2a0e:b107:5c5::/48 Istanbul 2020-03-29 2020-03-29 Yes
2a0e:b107:5c6::/48 BARIATZ DIY LABS 2020-03-30 2020-03-30 No
2a0e:b107:5d0::/44 ANONYM.ID 2020-03-08 2020-03-08 Yes
2a0e:b107:5e0::/44 Personal Use 2020-03-09 2020-03-09 Yes
2a0e:b107:5f0::/44 Personal Use 2020-03-09 2020-03-09 No
2a0e:b107:600::/44 Personal Use 2020-03-09 2020-03-09 No
2a0e:b107:610::/44 Personal Use 2020-03-10 2020-03-10 Yes
2a0e:b107:620::/44 ANONYM 2020-03-11 2020-03-11 Yes
2a0e:b107:630::/44 MeguDev inet6num 2020-03-11 2020-03-11 No
2a0e:b107:640::/44 Janda Kembang 2020-03-14 2020-03-14 No
2a0e:b107:650::/44 Content.id 2020-03-15 2020-03-15 No
2a0e:b107:660::/44 content.id 2020-03-15 2020-03-15 No
2a0e:b107:670::/44 Home Use 2020-03-16 2020-03-16 No
2a0e:b107:680::/44 SNIKB 2020-03-16 2020-03-16 No
2a0e:b107:690::/44 Flowinity Hosting 2020-03-18 2020-03-18 No
2a0e:b107:6a0::/44 GoHosted.eu 2020-03-18 2020-03-18 Yes
2a0e:b107:6b0::/44 from LET abysscong and need some IPv6 for my network 2020-03-19 2020-03-19 Yes
2a0e:b107:6c0::/44 CONTENT-ID 2020-03-21 2020-03-21 No
2a0e:b107:6d0::/44 Jsmsr's Experimental Network 2020-03-23 2020-03-23 No
2a0e:b107:6e0::/44 WhiteHat 2020-03-24 2020-03-24 No
2a0e:b107:6f0::/44 Test Network 2020-03-25 2020-03-25 No
2a0e:b107:700::/44 cheazey.net 2020-03-25 2020-03-25 No
2a0e:b107:710::/44 IPV6 2020-03-25 2020-03-25 Yes
2a0e:b107:720::/44 ShiraLabs 2020-03-27 2020-03-27 No
2a0e:b107:730::/44 Houge at XJTU 2020-03-30 2020-03-30 No
2a0e:b107:740::/44 TWD2-NET-CH 2020-03-30 2020-03-30 No
ALLOCATED-BY-RIR ALLOCATED-BY-LIR ASSIGNED
2a0e:b107::/322a0e:b107::/442a0e:b107:10::/462a0e:b107:14::/482a0e:b107:16::/482a0e:b107:17::/482a0e:b107:18::/482a0e:b107:1a::/482a0e:b107:1b::/482a0e:b107:1c::/464 Assignments of /482a0e:b107:20::/482a0e:b107:21::/482a0e:b107:22::/482a0e:b107:23::/482 Assignments of /642a0e:b107:24::/461 Assignment of /482a0e:b107:28::/472a0e:b107:2a::/482a0e:b107:2b::/482a0e:b107:2c::/482a0e:b107:2d::/482a0e:b107:2e::/482a0e:b107:2f::/482a0e:b107:30::/443 Assignments of /482a0e:b107:40::/442a0e:b107:50::/442a0e:b107:60::/442a0e:b107:80::/442a0e:b107:90::/442a0e:b107:a0::/443 Assignments of /482a0e:b107:b0::/442a0e:b107:c0::/442a0e:b107:c0::/481 Assignment of /482a0e:b107:d0::/442a0e:b107:e0::/442a0e:b107:f0::/441 Assignment of /482a0e:b107:110::/441 Assignment of /482a0e:b107:120::/442a0e:b107:140::/442 Assignments of /482a0e:b107:150::/442a0e:b107:160::/441 Assignment of /482a0e:b107:170::/441 Assignment of /482a0e:b107:180::/442a0e:b107:190::/482a0e:b107:191::/482a0e:b107:192::/482a0e:b107:193::/482a0e:b107:194::/482a0e:b107:195::/482a0e:b107:196::/482a0e:b107:197::/482 Assignments of /642a0e:b107:198::/482a0e:b107:199::/481 Assignment of /642a0e:b107:19a::/482a0e:b107:19b::/482a0e:b107:19c::/482a0e:b107:19d::/482a0e:b107:19d::/642 Assignments of /642a0e:b107:19e::/482a0e:b107:19f::/482a0e:b107:1a0::/442a0e:b107:1b0::/441 Assignment of /482a0e:b107:1c0::/443 Assignments of /482a0e:b107:1d0::/442a0e:b107:1d0::/482a0e:b107:1d3::/482a0e:b107:1da::/482a0e:b107:1de::/482a0e:b107:1e0::/442a0e:b107:1e0::/482a0e:b107:1f0::/442a0e:b107:200::/441 Assignment of /482a0e:b107:210::/442a0e:b107:220::/443 Assignments of /482a0e:b107:230::/443 Assignments of /482a0e:b107:240::/446 Assignments of /482a0e:b107:260::/442a0e:b107:270::/482a0e:b107:272::/481 Assignment of /642a0e:b107:273::/482a0e:b107:274::/482a0e:b107:275::/482a0e:b107:276::/482a0e:b107:278::/462a0e:b107:27c::/482a0e:b107:27d::/482a0e:b107:27f::/482a0e:b107:280::/442a0e:b107:290::/442a0e:b107:2a0::/442a0e:b107:2b0::/441 Assignment of /482a0e:b107:2c0::/441 Assignment of /482a0e:b107:2d0::/442a0e:b107:2d0::/452a0e:b107:2d8::/452a0e:b107:2e0::/442a0e:b107:2f0::/442 Assignments of /482a0e:b107:300::/441 Assignment of /482a0e:b107:310::/441 Assignment of /482a0e:b107:320::/442a0e:b107:330::/441 Assignment of /482a0e:b107:340::/442a0e:b107:350::/442a0e:b107:370::/442a0e:b107:380::/442a0e:b107:380::/482a0e:b107:381::/482a0e:b107:390::/442a0e:b107:3a0::/442a0e:b107:3b0::/442a0e:b107:3c0::/4410 Assignments of /482a0e:b107:3d0::/448 Assignments of /481 Assignment of /452a0e:b107:3f0::/443 Assignments of /482a0e:b107:410::/448 Assignments of /482a0e:b107:420::/442a0e:b107:430::/442a0e:b107:440::/442 Assignments of /482a0e:b107:450::/441 Assignment of /482a0e:b107:460::/441 Assignment of /482a0e:b107:470::/442a0e:b107:480::/442a0e:b107:490::/442a0e:b107:4a0::/4416 Assignments of /482a0e:b107:4b0::/442a0e:b107:4c0::/442a0e:b107:4d0::/442a0e:b107:4e0::/441 Assignment of /482a0e:b107:4f0::/442 Assignments of /482a0e:b107:500::/442a0e:b107:510::/441 Assignment of /482a0e:b107:520::/442a0e:b107:530::/442 Assignments of /452a0e:b107:540::/442 Assignments of /482a0e:b107:550::/441 Assignment of /482a0e:b107:560::/444 Assignments of /482a0e:b107:570::/442a0e:b107:570::/4815 Assignments of /482a0e:b107:580::/442a0e:b107:590::/442a0e:b107:5a0::/442a0e:b107:5b0::/442a0e:b107:5c0::/482a0e:b107:5c1::/482a0e:b107:5c2::/482a0e:b107:5c3::/482a0e:b107:5c4::/482a0e:b107:5c5::/482 Assignments of /492a0e:b107:5c6::/482a0e:b107:5d0::/442a0e:b107:5d0::/452a0e:b107:5d8::/452a0e:b107:5e0::/442a0e:b107:5e0::/452a0e:b107:5e8::/452a0e:b107:5f0::/442a0e:b107:600::/442a0e:b107:610::/442a0e:b107:610::/452a0e:b107:618::/452a0e:b107:620::/442a0e:b107:620::/452a0e:b107:628::/452a0e:b107:630::/442a0e:b107:640::/442a0e:b107:650::/442a0e:b107:660::/442a0e:b107:670::/442a0e:b107:680::/442a0e:b107:690::/442a0e:b107:6a0::/4416 Assignments of /482a0e:b107:6b0::/441 Assignment of /482a0e:b107:6c0::/442a0e:b107:6d0::/442a0e:b107:6e0::/442a0e:b107:6f0::/442a0e:b107:700::/442a0e:b107:710::/441 Assignment of /482a0e:b107:720::/442a0e:b107:730::/442a0e:b107:740::/44